sat.trackr.live / text

‹ back to catalog

PUNCH-WFI 1 (SMEX 15B)

NORAD 63179 · 2025-047B

PAYLOAD ACTIVE UNKNOWN

§ Identity

Operator
Country
US
Launch date
2025-03-12
Launch site
AFWTR
Launch vehicle
Mass (kg)
RCS (m²)

External: N2YO · Heavens-Above · Gunter

§ Orbital elements

Epoch: 2026-05-25T02:47:02.889024Z

Period
97.67 min
Inclination
97.9585°
Eccentricity
0.0007668
Mean motion
14.74319122 rev/d
Perigee alt
641.9 km
Apogee alt
652.7 km
Semi-major
7,025.5 km
B*
7.8222e-5
RAAN
330.8565°
Arg perigee
248.9091°
Mean anomaly
111.1298°
Rev number
6,466

§ Raw data

PUNCH-WFI 1 (SMEX 15B)1 63179U 25047B   26145.11600566  .00000468  00000+0  78222-4 0  99992 63179  97.9585 330.8565 0007668 248.9091 111.1298 14.74319122 64660

JSON: /api/v1/satellites/63179 · /tle

For live sub-satellite position, see the globe view (requires WebGL).

§ Visibility from observer

Set your observer location to see the next 7 days of passes ≥ 10°. The values pass through the URL so the page stays shareable.

No JS? Fill the form by hand. The geolocation button needs JavaScript.